Regional Weather Roundup
Issued by NWS Newport/Morehead, NC

Home | Current Version | Previous Version | Text Only | Print | Product List | Glossary On
Versions: 1 2 3 4 5 6 7 8 9 10 11 12 13 14 15 16 17 18 19 20 21 22 23 24 25 26 27 28 29 30 31 32 33 34 35 36 37 38 39 40 41 42 43 44 45 46 47 48 49 50
000
ASUS42 KMHX 241626
RWRMHX
WEATHER ROUNDUP FOR EASTERN NORTH CAROLINA
NATIONAL WEATHER SERVICE NEWPORT/MOREHEAD CITY NC
1200 PM EDT MON JUL 24 2017

NOTE: "FAIR" INDICATES FEW OR NO CLOUDS BELOW 12,000 FEET
WITH NO SIGNIFICANT WEATHER AND/OR OBSTRUCTIONS TO VISIBILITY

NCZ015>017-031-032-045>047-102-103-241700-
NORTH COAST

CITY           SKY/WX    TMP DP  RH WIND       PRES   REMARKS
EDENTON        CLOUDY    82  74  76 SW10      29.90F
ELIZABETH CITY LGT RAIN  79  76  90 SW9       29.89S
KITTY HAWK     CLOUDY    84  73  68 SW9       29.89S
MANTEO         CLOUDY    85  73  69 W17       29.90S

$$

NCZ045>047-081-094-103-104-241700-
CENTRAL COAST

CITY           SKY/WX    TMP DP  RH WIND       PRES   REMARKS
FRISCO         CLOUDY    82  75  79 SW16G23   29.93S

$$

NCZ095-097-098-100-101-241700-
SOUTHERN COAST

CITY           SKY/WX    TMP DP  RH WIND       PRES   REMARKS
BEAUFORT       MOSUNNY   85  79  82 SW20      29.94S
CEDAR ISLAND   NOT AVBL
JACKSONVILLE   PTSUNNY   86  76  71 W10       29.94R
PINEY ISLAND   MOSUNNY  N/A N/A N/A SW15G25   29.92F
WILMINGTON     PTSUNNY   87  74  64 SW12      29.95S


$$

NCZ011>013-027>030-043-044-078>080-089-090>093-098-241700-
COASTAL PLAIN

CITY           SKY/WX    TMP DP  RH WIND       PRES   REMARKS
AHOSKIE          N/A     80  75  86 S3        29.89F
CLINTON        NOT AVBL
ELIZABETHTOWN  NOT AVBL
GOLDSBORO      PTSUNNY   86  77  74 SW14      29.91F
GREENVILLE     CLOUDY    82  73  74 SW9       29.93F
HAVELOCK       CLOUDY    86  75  69 SW13      29.93F
KENANSVILLE    MOSUNNY   86  73  66 W10G16    29.94S
KINSTON        PTSUNNY   88  72  58 SW13G21   29.93F
NEW BERN       CLOUDY    85  75  72 SW10      29.94S
RICHLANDS      PTSUNNY   87  75  67 SW9       29.95S
ROCKY MOUNT    PTSUNNY   81  75  82 SW12      29.92F
WASHINGTON     MOSUNNY   82  74  75 SW7       29.91F
WHITEVILLE     NOT AVBL

$$

AMZ130-135-150-152-154-156-158-170-250-252-270-ANZ085-086-088-633-658-670-241700-
MARINE OBSERVATIONS

STATION/POSITION TIME  TEMP    WIND        PRES    WAVE   SWELL
                       AIR SEA DIR/SP/G            HT/PER HT/PER
                 (UTC) (F)     (DEG/KT/KT) (MB)    (FT/S) (FT/S)
CHESAPEAKE LIGHT NOT AVBL
64 E VA BEACH    1550   80 78  220/ 16/ 17 1011.9    5/ 6   2/ 9
DUCK             1600   83 62  250/ 16/ 19 1011.9
2 E DUCK         1600      67                N/A     2/ 9
OREGON INLET     1600   83 82  220/ 18/ 21 1012.3
13E OREGON INLT  1548      69                N/A     4/ 8   2/11
HATTERAS CG      1600   80 77  230/ 10/ 15 1013.3
DIAMOND BUOY     1550   82 84  240/ 21/ 25 1013.3    8/ 8   2/13
CAPE LOOKOUT     1600   84     230/ 11/ 16 1013.7
BEAUFORT LAB     1600   84 79  220/  8/ 11 1013.3
30 SE NEW RVR IN 1608   81 82  240/ 19/ 23 1014.3
30 SE NEW RVR IN 1543      82                N/A     7/ 7
27 SE WRIGHTSVLE 1608   82 83  220/ 17/ 23 1014.2
5 SE WRIGHTSVLE  1608   81 81  210/ 10/ 17 1014.2
225 S CAPE HAT   1550   83 83  230/ 17/ 19 1018.4    5/ 6   2/11
41 SE CHARLESTON 1610   81 83  260/ 16/ 19 1015.5

$$




USA.gov is the U.S. government's official web portal to all federal, state and local government web resources and services.